Hourly Data Report for February 12, 2004

SHERBROOKE A
QUEBEC

45°26'00.000" N
71°41'00.000" W
241.40 m
7028124
71610
YSC

Download Data

Hourly Data (February 2004)
Hourly Data Report for February 12, 2004
TIME
LST
Temp Definition
°C
Dew Point Definition
°C
Rel Hum Definition
%
Precip. Amount Definition
mm

Wind Dir Definition
10's deg

Wind Spd Definition
km/h
Visibility Definition
km
Stn Press Definition
kPa
Hmdx Definition


Wind Chill Definition


Weather Definition


00:00 -15.8 -21.0 64   24 11 15.0 99.22   -23  
01:00 -16.6 -21.4 66   24 7 15.0 99.22   -22  
02:00 -22.0 -25.4 74   22 4 15.0 99.25   -26  
03:00 -23.0 -27.6 66     0 15.0 99.23      
04:00 -23.9 -27.9 70   10 4 15.0 99.19   -28  
05:00 -24.6 -31.1 55   9 6 15.0 99.14   -30  
06:00 -25.5 -31.2 59     0 15.0 99.14      
07:00 -24.0 -29.7 59   9 4 15.0 99.14   -28  
08:00 -21.2 -26.5 62     0 19.3 99.16     Snow
09:00 -17.3 -22.6 63   21 6 16.1 99.17   -22 Snow
10:00 -13.5 -18.9 64   24 7 11.3 99.15   -18 Snow
11:00 -11.4 -17.9 59   28 6 8.0 99.08   -15 Snow Showers
12:00 -10.6 -16.1 64   26 20 19.3 98.96   -19 Snow Showers
13:00 -9.9 -16.2 60   27 20 19.3 98.87   -18 Snow Showers
14:00 -9.6 -15.4 63   28 17 16.1 98.83   -17 Snow Showers
15:00 -8.9 -15.3 60   28 13 24.1 98.80   -15 Snow Showers
16:00 -8.9 -15.4 59   26 13 19.3 98.75   -15 Snow Showers
17:00 -9.2 -14.8 64   27 9 19.3 98.74   -14 Snow Showers
18:00 -10.6 -15.3 68     0 15.0 98.70     Snow
19:00 -11.1 -14.9 73   23 4 15.0 98.64   -14 Snow
20:00 -13.4 -16.7 76   18 6 15.0 98.56   -17 Snow
21:00 -15.8 -19.3 74     0 15.0 98.50      
22:00 -14.3 -17.1 79   24 7 15.0 98.41   -19  
23:00 -11.4 -14.7 77   24 4 8.0 98.32   -14 Snow

Notes on Data Quality.

Legend

  • E = Estimated
  • M = Missing
  • NA = Not Available*
  • [empty] = Indicates an unobserved value
Date modified: